This demonstration page uses our WeatherBlox Daily Observations layout. Learn more.

Left ArrowRight Arrow

34.74481, -87.66753

Hourly Observations for September 20, 2019

Temp ( °F °C ) Dew Point ( °F °C ) Humidity (%) Winds ( mph kmh ) Pressure ( in mb ) Visibility ( mi km ) Precip ( " mm )
12:53 am 00:53 Clear 73 22.8 64 17.8 74 74 ESE 5 7 30.12 1020 10 16 0.00 0.00
2:53 am 02:53 Mostly Cloudy 74 23.3 62 16.7 67 67 SE 6 9 30.13 1020 10 16 0.00 0.00
3:53 am 03:53 Mostly Cloudy 73 22.8 59 15 62 62 SE 6 9 30.15 1021 10 16 0.00 0.00
4:53 am 04:53 Cloudy 73 22.8 58 14.4 59 59 ESE 6 9 30.17 1022 10 16 0.00 0.00
5:53 am 05:53 Mostly Clear 70 21.1 58 14.4 66 66 ESE 6 9 30.18 1022 10 16 0.00 0.00
6:53 am 06:53 Sunny 70 21.1 58 14.4 66 66 ESE 7 11 30.19 1022 10 16 0.00 0.00
7:53 am 07:53 Sunny 72 22.2 58 14.4 61 61 SE 7 11 30.22 1023 10 16 0.00 0.00
8:53 am 08:53 Sunny 76 24.4 54 12.2 47 47 SE 15 24 30.22 1024 10 16 0.00 0.00
9:53 am 09:53 Sunny 80 26.7 54 12.2 41 41 S 10 17 30.23 1024 10 16 0.00 0.00
10:53 am 10:53 Sunny 83 28.3 55 12.8 38 38 SSE 8 13 30.23 1024 10 16 0.00 0.00
11:53 am 11:53 Sunny 86 30 55 12.8 35 35 SSE 9 15 30.21 1023 10 16 0.00 0.00
12:53 pm 12:53 Sunny 87 30.6 56 13.3 35 35 S 9 15 30.19 1023 10 16 0.00 0.00
1:53 pm 13:53 Sunny 89 31.7 57 13.9 34 34 ESE 8 13 30.17 1022 10 16 0.00 0.00
2:53 pm 14:53 Sunny 89 31.7 58 14.4 35 35 VRB 7 11 30.15 1021 10 16 0.00 0.00
3:53 pm 15:53 Sunny 90 32.2 57 13.9 33 33 S 6 9 30.14 1021 10 16 0.00 0.00
4:53 pm 16:53 Sunny 90 32.2 57 13.9 33 33 SSE 7 11 30.13 1020 10 16 0.00 0.00
5:53 pm 17:53 Sunny 88 31.1 57 13.9 35 35 S 7 11 30.13 1020 10 16 0.00 0.00
6:53 pm 18:53 Clear 81 27.2 61 16.1 51 51 E 5 7 30.14 1021 10 16 0.00 0.00
7:53 pm 19:53 Clear 74 23.3 62 16.7 67 67 ESE 3 6 30.16 1021 10 16 0.00 0.00
8:53 pm 20:53 Clear 74 23.3 61 16.1 64 64 SE 5 7 30.18 1022 10 16 0.00 0.00
9:53 pm 21:53 Clear 72 22.2 61 16.1 68 68 SE 5 7 30.19 1022 10 16 0.00 0.00
10:53 pm 22:53 Clear 71 21.7 59 15 66 66 ESE 3 6 30.19 1022 10 16 0.00 0.00
11:53 pm 23:53 Clear 69 20.6 60 15.6 73 73 SE 3 6 30.19 1022 10 16 0.00 0.00

Powered by AerisWeather